This demonstration page uses our WeatherBlox Daily Observations layout. Learn more.

Left ArrowRight Arrow

44.89941, -97.11507

Hourly Observations for September 1, 2018

Temp ( °F °C ) Dew Point ( °F °C ) Humidity (%) Winds ( mph kmh ) Pressure ( in mb ) Visibility ( mi km ) Precip ( " mm )
12:39 am 00:39 Mostly Cloudy with Fog 61 16.1 61 16.1 100 100 Calm 29.80 1009 1 1 0.00 0.00
12:53 am 00:53 Mostly Cloudy with Fog 64 17.8 63 17.2 96 96 Calm 29.81 1010 1 1 0.00 0.00
1:02 am 01:02 Clear with Mist and Fog 63 17.2 63 17.2 100 100 NNW 5 7 29.80 1009 1 2 0.00 0.00
1:05 am 01:05 Clear with Mist and Fog 63 17.2 63 17.2 100 100 NNW 3 6 29.80 1009 3 4 0.00 0.00
1:12 am 01:12 Clear with Mist and Fog 63 17.2 63 17.2 100 100 Calm 29.80 1009 1 2 0.00 0.00
1:17 am 01:17 Clear with Fog 61 16.1 61 16.1 100 100 Calm 29.80 1009 0 0 0.00 0.00
1:24 am 01:24 Mostly Cloudy with Fog 60 15.6 60 15.6 100 100 Calm 29.80 1009 0 0 0.00 0.00
1:53 am 01:53 Mostly Cloudy with Fog 58 14.4 58 14.4 100 100 Calm 29.81 1010 0 0 0.00 0.00
2:49 am 02:49 Mostly Cloudy with Fog 63 17 63 17 100 100 Calm 29.83 1010 1 1 0.00 0.00
2:53 am 02:53 Mostly Cloudy with Fog 63 17.2 63 17.2 100 100 NNW 3 6 29.83 1010 1 1 0.00 0.00
3:05 am 03:05 Mostly Cloudy with Fog 58 14.4 58 14.4 100 100 Calm 29.80 1009 0 0 0.00 0.00
3:20 am 03:20 Mostly Cloudy with Fog 58 14.4 58 14.4 100 100 Calm 29.80 1009 5 8 0.00 0.00
3:41 am 03:41 Mostly Cloudy with Fog 60 15.6 60 15.6 100 100 Calm 29.83 1010 0 0 0.00 0.00
3:53 am 03:53 Mostly Cloudy with Fog 62 16.7 62 16.7 100 100 Calm 29.84 1010 0 0 0.00 0.00
4:36 am 04:36 Mostly Cloudy with Fog 60 15.6 60 15.6 100 100 N 5 7 29.83 1010 5 8 0.00 0.00
4:53 am 04:53 Mostly Cloudy with Fog 60 15.6 60 15.6 100 100 N 5 7 29.85 1011 0 0 0.00 0.00
5:13 am 05:13 Mostly Cloudy with Fog 60 15.6 60 15.6 100 100 N 5 7 29.85 1011 0 0 0.00 0.00
5:46 am 05:46 Mostly Cloudy with Fog 58 14.4 58 14.4 100 100 NNW 6 9 29.88 1012 1 1 0.00 0.00
5:51 am 05:51 Mostly Clear with Mist and Fog 57 14 57 14 100 100 NNW 6 9 29.88 1012 2 2 0.00 0.00
5:53 am 05:53 Mostly Clear with Mist and Fog 58 14.4 58 14.4 100 100 NNW 7 11 29.87 1012 4 6 0.00 0.00
6:53 am 06:53 Sunny 54 12.2 53 11.7 97 97 NNE 7 11 29.87 1012 10 16 0.00 0.00
7:53 am 07:53 Sunny 56 13.3 54 12.2 93 93 N 8 13 29.88 1012 10 16 0.00 0.00
8:53 am 08:53 Sunny 64 17.8 55 12.8 73 73 NNE 10 17 29.90 1013 10 16 0.00 0.00
9:53 am 09:53 Sunny 69 20.6 54 12.2 59 59 ENE 12 19 29.92 1013 10 16 0.00 0.00
10:53 am 10:53 Sunny 72 22.2 53 11.7 52 52 ENE 8 13 29.96 1014 10 16 0.00 0.00
11:53 am 11:53 Sunny 75 23.9 50 10 41 41 E 7 11 29.96 1015 10 16 0.00 0.00
12:53 pm 12:53 Sunny 76 24.4 54 12.2 47 47 ESE 7 11 29.94 1014 10 16 0.00 0.00
1:53 pm 13:53 Sunny 79 26.1 50 10 36 36 E 6 9 29.91 1013 10 16 0.00 0.00
2:53 pm 14:53 Sunny 81 27.2 44 6.7 27 27 ESE 5 7 29.89 1012 10 16 0.00 0.00
3:53 pm 15:53 Mostly Sunny 82 27.8 47 8.3 29 29 VRB 3 6 29.88 1012 10 16 0.00 0.00
4:53 pm 16:53 Mostly Cloudy 79 26.1 52 11.1 39 39 SE 9 15 29.87 1011 10 16 0.00 0.00
5:53 pm 17:53 Sunny 79 26.1 54 12.2 42 42 SSE 7 11 29.86 1011 10 16 0.00 0.00
6:53 pm 18:53 Sunny 77 25 59 15 54 54 SSE 6 9 29.86 1011 10 16 0.00 0.00
7:53 pm 19:53 Sunny 76 24.4 58 14.4 54 54 ESE 5 7 29.85 1011 10 16 0.00 0.00
8:53 pm 20:53 Clear 73 22.8 59 15 62 62 E 8 13 29.83 1010 10 16 0.00 0.00
9:53 pm 21:53 Clear 71 21.7 58 14.4 63 63 ESE 6 9 29.85 1011 10 16 0.00 0.00
10:53 pm 22:53 Clear 69 20.6 59 15 70 70 SE 7 11 29.85 1011 10 16 0.00 0.00
11:53 pm 23:53 Partly Cloudy 67 19.4 61 16.1 81 81 SE 7 11 29.84 1011 10 16 0.00 0.00

Powered by AerisWeather